Вернуться в каталог

SL-16 DEB

АктивенLEO
NORAD 22369·DEBRIS·🇷🇺 Russia

Запущен Dec 25, 1992 с Baikonur Cosmodrome

Loading…

Ближайшие Пролёты (ближайшие 24 часа)

TLE

СвежийSource: Space-Track

Эпоха: Sep 14, 2026, 13:00 UTC

1 22369U 92093BJ  26257.54199375 -.00000008  00000-0  27369-4 0  9990
2 22369  70.8861 304.4320 0101553 212.8276 146.6501 13.94462473714348

Отслеживайте SL-16 DEB в реальном времени с AllMySat

Download on the App Store